Terminal Aerodrome Forecast
Issued by NWS Wilmington, OH

Current Version | Previous Version | Text Only | Print | Product List | Glossary Off
Versions: 1 2 3 4 5 6 7 8 9 10 11 12 13 14

000
FTUS41 KILN 191700
TAFILN
TAF
KILN 191740Z 1918/2018 06010G18KT P6SM SKC
     FM200000 05005KT P6SM SKC
     FM201200 09005KT P6SM SKC
     FM201500 15007KT P6SM BKN250=

USA.gov is the U.S. government's official web portal to all federal, state and local government web resources and services.